Location: McKinney
(33.1972°N, 96.6398°W)
Time: 15:30:21
(UTC-05:00)

ISS - Pass Details

Date: 28 April 2019
Orbit: 407 x 410 km, 51.6° (Epoch: 22 May)

Event Time Altitude Azimuth Distance (km) Brightness Sun altitude
Exits shadow 04:32:23 13° 116° (ESE) 1,297 -1.0 -24.8°
Drops below altitude 10° 04:33:34 10° 95° (E) 1,470 -0.4 -24.6°
Sets 04:36:27 0° 68° (ENE) 2,336 1.3 -24.1°
